Home   Weather   Oral   Past weeks

Flag for Kazakhstan Past Weather in Oral, Kazakhstan — Yesterday and Last 2 Weeks

Now
61 °F

Partly sunny.


Feels Like: 61 °F
Forecast: 46 / 60 °F
Wind: 24 mph from Southwest

Location: Uralsk

Current Time: Apr 23, 2017 at 3:12:32 pm

Latest Report: Apr 23, 2017 at 2:30 pm


Visibility: N/A

Pressure: 29.86 "Hg

Humidity: 48%

Dew Point: 41 °F

Location of OralLocation

Past Weather in Oral — Graph

°F

Oral Temperature Yesterday

Maximum temperature yesterday: 45 °F (at 6:30 pm)
Minimum temperature yesterday: 32 °F (at 2:00 am)
Average temperature yesterday: 40 °F

High & Low Weather Summary for the Past Weeks

 TemperatureHumidityPressure
High75 °F (Apr 19, 3:00 pm)100% (Apr 10, 12:00 am)30.12 "Hg (Apr 10, 12:00 am)
Low27 °F (Apr 11, 4:00 am)21% (Apr 19, 3:00 pm)29.39 "Hg (Apr 15, 4:00 am)
Average49 °F63%29.90 "Hg
* Reported Apr 8 2:00 pm — Apr 23 2:00 pm, Oral, Weather by CustomWeather, © 2017

Note: Actual official high and low records may vary slightly from our data, if they occured in-between our weather recording intervals... More about our weather records

Advertising

Oral Weather History for the Previous 24 Hours

Scroll right to see more
 ConditionsComfort  
Time TempWeatherWind HumidityBarometerVisibility
2:00 pm
Sun, Apr 23
61 °FPartly sunny.22 mph45%29.86 "HgN/A
1:30 pm59 °FPartly sunny.22 mph55%29.86 "HgN/A
1:00 pm59 °FSunny.22 mph55%29.86 "Hg10 mi
12:30 pm57 °FScattered clouds.22 mph59%29.86 "HgN/A
12:00 pm55 °FScattered clouds.20 mph63%29.86 "HgN/A
11:30 am54 °FScattered clouds.20 mph67%29.86 "HgN/A
11:00 am50 °FScattered clouds.20 mph71%29.86 "HgN/A
10:30 am48 °FScattered clouds.17 mph76%29.86 "HgN/A
10:00 am46 °FScattered clouds.17 mph82%29.83 "HgN/A
9:30 am45 °FScattered clouds.15 mph81%29.83 "HgN/A
9:00 am43 °FScattered clouds.15 mph87%29.83 "HgN/A
8:30 am41 °FScattered clouds.15 mph93%29.83 "HgN/A
7:30 am39 °FBroken clouds.13 mph93%29.80 "HgN/A
7:00 am39 °FScattered clouds.13 mph93%29.77 "HgN/A
6:30 am41 °FPartly sunny.10 mph87%29.77 "HgN/A
6:00 am41 °FPassing clouds.10 mph87%29.74 "HgN/A
5:30 am41 °FPassing clouds.8 mph87%29.74 "HgN/A
5:00 am39 °FPassing clouds.13 mph87%29.74 "HgN/A
4:00 am41 °FPassing clouds.15 mph87%29.68 "HgN/A
3:00 am41 °FPassing clouds.15 mph87%29.68 "HgN/A
2:00 am41 °FSprinkles. Mostly cloudy.15 mph100%29.65 "Hg6 mi
1:00 am41 °FSprinkles. Overcast.17 mph93%29.62 "HgN/A
11:00 pm
Sat, Apr 22
39 °FPassing clouds.13 mph93%29.59 "HgN/A
10:00 pm41 °FPassing clouds.13 mph87%29.59 "HgN/A
9:00 pm41 °FPassing clouds.8 mph87%29.59 "HgN/A
8:00 pm45 °FPartly sunny.10 mph81%29.56 "HgN/A
7:30 pm45 °FPartly sunny.15 mph87%29.56 "HgN/A
7:00 pm45 °FPartly sunny.17 mph87%29.56 "HgN/A
6:30 pm45 °FSprinkles. Mostly cloudy.15 mph87%29.56 "HgN/A
6:00 pm43 °FSprinkles. Mostly cloudy.15 mph93%29.56 "Hg6 mi
5:00 pm43 °FMostly cloudy.17 mph93%29.56 "HgN/A
4:30 pm43 °FSprinkles. Mostly cloudy.15 mph93%29.59 "HgN/A
4:00 pm43 °FSprinkles. Overcast.17 mph93%29.56 "HgN/A
3:30 pm43 °FSprinkles. Overcast.17 mph87%29.62 "Hg6 mi
3:00 pm41 °FSprinkles. Overcast.22 mph87%29.65 "Hg4 mi
Weather by CustomWeather, © 2017

See weather overviewHow to use our weather pages